| DS18B20 | SHTC3 | PZEM-004T | WiFi | ||||||||
|---|---|---|---|---|---|---|---|---|---|---|---|
| ID | Date d/m/Y & Time | data1 สูง | data2 ต่ำ | data3 นอก | temp pcb | hum pcb | Volt | Amp | Watt | rssi | Time |
| 1082 | 07/07/2026 12:08:13 | 33.0  | 32.8  | 35.2  | 33.6  | 66.2  | 232.9  | 0.04  | 4.7  | -65  | 12:08 |
| 1081 | 07/07/2026 12:03:30 | 32.9  | 32.7  | 34.9  | 33.5  | 66.1  | 232.5  | 0.04  | 4.7  | -64  | 12:03 |
| 1080 | 07/07/2026 11:58:47 | 32.9  | 32.6  | 34.8  | 33.4  | 66.3  | 232.2  | 0.04  | 4.7  | -64  | 11:58 |
| 1079 | 07/07/2026 11:54:04 | 32.8  | 32.6  | 34.7  | 33.3  | 66.3  | 231.5  | 0.04  | 4.6  | -65  | 11:54 |
| 1078 | 07/07/2026 11:49:22 | 32.7  | 32.5  | 34.3  | 33.3  | 66.3  | 230.6  | 0.04  | 4.6  | -64  | 11:49 |
| 1077 | 07/07/2026 11:44:39 | 32.6  | 32.4  | 34.5  | 33.1  | 66.3  | 230.0  | 0.04  | 4.7  | -63  | 11:44 |
| 1076 | 07/07/2026 11:39:56 | 32.6  | 32.4  | 34.0  | 33.1  | 66.3  | 230.6  | 0.04  | 4.6  | -65  | 11:39 |
| 1075 | 07/07/2026 11:35:14 | 32.6  | 32.4  | 33.9  | 33.1  | 66.3  | 230.7  | 0.04  | 4.6  | -66  | 11:35 |
| 1074 | 07/07/2026 11:30:31 | 32.6  | 32.3  | 34.0  | 33.0  | 66.3  | 229.8  | 0.04  | 4.6  | -64  | 11:30 |
| 1073 | 07/07/2026 11:25:49 | 32.4  | 32.2  | 34.4  | 32.9  | 66.7  | 230.2  | 0.04  | 4.6  | -64  | 11:25 |
| 1072 | 07/07/2026 11:21:06 | 32.4  | 32.2  | 34.0  | 32.8  | 66.6  | 230.1  | 0.04  | 4.7  | -64  | 11:21 |
| 1071 | 07/07/2026 11:16:24 | 32.3  | 32.1  | 33.9  | 32.7  | 66.7  | 230.2  | 0.04  | 4.6  | -64  | 11:16 |
| 1070 | 07/07/2026 11:11:41 | 32.2  | 32.1  | 33.5  | 32.7  | 66.7  | 230.0  | 0.04  | 4.6  | -65  | 11:11 |
| 1069 | 07/07/2026 11:06:58 | 32.2  | 32.1  | 33.8  | 32.6  | 66.8  | 230.1  | 0.04  | 4.6  | -68  | 11:06 |
| 1068 | 07/07/2026 11:02:15 | 32.1  | 32.0  | 33.7  | 32.5  | 66.8  | 230.2  | 0.04  | 4.6  | -64  | 11:02 |
| 1067 | 07/07/2026 10:57:32 | 32.1  | 31.9  | 33.7  | 32.5  | 66.9  | 230.6  | 0.04  | 4.6  | -63  | 10:57 |
| 1066 | 07/07/2026 10:52:50 | 32.0  | 31.9  | 33.2  | 32.5  | 66.9  | 230.1  | 0.04  | 4.6  | -65  | 10:52 |
| 1065 | 07/07/2026 10:48:05 | 32.0  | 31.9  | 33.4  | 32.5  | 66.8  | 230.0  | 0.04  | 4.6  | -65  | 10:48 |
| 1064 | 07/07/2026 10:43:23 | 31.9  | 31.8  | 33.4  | 32.6  | 66.8  | 230.2  | 0.04  | 4.6  | -63  | 10:43 |
| 1063 | 07/07/2026 10:38:40 | 31.9  | 31.8  | 33.1  | 32.3  | 66.9  | 230.2  | 0.04  | 4.6  | -64  | 10:38 |
| 1062 | 07/07/2026 10:33:58 | 31.9  | 31.7  | 33.2  | 32.4  | 67.0  | 230.1  | 0.04  | 4.6  | -64  | 10:33 |
| 1061 | 07/07/2026 10:29:15 | 31.8  | 31.6  | 33.3  | 32.3  | 67.0  | 230.4  | 0.04  | 4.6  | -64  | 10:29 |
| 1060 | 07/07/2026 10:24:32 | 31.7  | 31.6  | 33.1  | 32.1  | 67.2  | 230.6  | 0.04  | 4.6  | -63  | 10:24 |
| 1059 | 07/07/2026 10:19:50 | 31.6  | 31.5  | 33.0  | 32.0  | 67.1  | 230.2  | 0.04  | 4.6  | -66  | 10:19 |